Wind_Speed
27 27 27 27 27 27 27 27 26 26 25 25 24 24 23 22 21 20 19 18 16 16 16 16 16 15 16 16 18 19 19 19 18 17 16 16 16 15 15 15 15 16 17 17 18 19 19 19 19 20 20 15 4 11 19 22 26 26 22 22 23 24 27 27 28 27 26 28 32 33 32 33 33 33 31 30 29 27 27 26 24 25 24 23 23 24 26 27
30 30 30 30 30 30 29 29 29 28 28 27 27 27 26 25 24 23 22 21 20 18 18 17 17 17 16 16 17 18 19 20 19 19 18 17 16 15 15 15 15 15 15 16 17 18 19 19 19 19 21 20 13 2 12 20 26 28 27 25 22 23 25 24 24 24 23 22 24 28 29 30 31 32 31 30 29 28 27 26 26 25 23 24 24 24 25 26
32 32 32 32 32 32 32 32 31 31 31 30 30 30 29 29 28 27 26 24 23 22 21 19 19 18 18 17 17 18 19 20 20 20 19 18 18 17 15 15 14 14 15 15 16 17 18 19 19 19 20 22 19 9 3 13 22 28 28 24 21 22 22 22 21 20 21 20 20 23 25 26 28 29 30 29 29 28 27 26 26 25 24 24 23 22 23 24
34 34 34 35 34 34 34 34 34 34 33 33 32 32 32 32 31 30 29 28 26 24 23 22 21 20 19 18 18 19 19 20 20 21 21 20 20 19 17 16 15 14 14 15 15 15 17 18 19 19 19 21 22 17 6 5 15 25 26 21 19 21 21 21 18 16 16 16 18 20 22 23 24 25 26 27 27 27 26 25 25 24 23 22 21 22 23 23
37 37 37 37 37 37 37 37 37 37 36 36 35 35 35 34 34 33 32 31 30 28 26 25 24 22 21 19 19 19 20 21 20 22 23 21 22 21 19 18 17 16 14 14 15 15 15 17 18 19 19 19 22 21 13 3 6 18 25 21 18 18 17 17 16 15 14 14 18 20 20 20 21 22 23 24 25 25 24 24 23 23 22 21 20 21 22 22
40 40 40 40 40 40 39 39 39 39 38 38 37 36 36 36 36 35 34 33 32 31 29 28 26 25 23 21 20 19 21 23 21 23 25 22 23 22 21 20 18 18 16 15 15 15 15 16 17 18 19 19 20 21 18 11 5 7 19 22 19 15 12 12 12 12 13 14 17 19 19 19 19 20 21 22 23 23 23 23 22 21 21 20 19 19 19 18
42 42 42 42 41 41 41 40 40 39 39 38 38 37 36 36 36 36 35 35 33 33 31 30 28 27 26 23 22 21 21 24 25 26 25 23 23 23 23 22 20 20 19 17 15 15 15 15 16 17 18 18 18 19 20 15 10 5 6 17 20 15 10 10 10 11 14 15 16 17 17 18 19 19 20 21 22 21 22 21 20 17 16 15 15 16 15 14
43 43 42 42 42 42 41 41 40 40 39 39 38 37 37 36 36 36 36 35 34 34 33 31 29 28 27 25 24 22 21 25 29 27 25 25 25 24 24 24 23 21 21 19 17 16 16 15 15 16 17 18 17 17 19 18 13 9 4 5 13 12 10 9 9 12 14 14 13 13 14 15 16 17 18 19 20 20 19 18 15 12 12 12 13 13 12 12
44 44 44 44 44 44 43 43 42 42 42 41 40 39 39 38 37 37 37 37 36 35 34 33 31 29 28 27 25 24 23 27 32 28 26 27 26 26 26 25 25 23 22 21 19 18 17 16 14 15 16 17 17 16 17 17 16 11 7 2 4 8 10 9 9 11 13 12 9 8 9 11 14 16 17 18 19 18 16 14 12 11 11 10 11 12 12 13
47 47 47 48 48 48 47 47 47 46 46 45 44 43 42 42 41 40 40 40 39 38 37 36 35 32 31 29 27 26 24 26 31 30 28 28 27 28 28 27 27 26 24 23 21 20 19 17 15 14 15 16 17 16 15 15 16 13 9 5 1 5 8 9 9 11 11 10 7 7 8 10 13 15 17 18 18 17 14 12 11 10 10 10 11 12 13 14
48 49 49 49 50 50 50 50 50 50 50 50 49 48 47 46 45 45 44 43 43 42 41 40 39 37 34 32 30 29 26 26 31 31 28 28 28 28 29 29 28 28 27 25 24 22 20 19 17 15 14 15 16 16 15 13 14 13 11 7 4 1 5 8 9 10 10 9 8 8 8 10 12 14 15 17 16 15 13 11 11 10 11 11 12 13 14 14
50 50 50 51 51 51 51 51 52 52 52 52 52 51 51 50 50 49 48 47 47 46 45 43 42 41 39 37 35 33 30 28 30 31 29 29 29 28 29 30 29 29 29 27 26 25 22 21 20 17 15 14 15 15 14 13 11 12 11 9 6 4 2 6 8 8 9 10 10 9 9 10 11 12 13 14 14 14 12 12 12 12 12 11 10 12 13 13
53 53 53 53 54 54 54 54 54 54 53 53 53 53 52 52 52 51 51 50 50 49 48 47 46 45 43 41 40 38 34 32 32 32 31 30 30 29 29 30 30 31 31 29 28 26 25 23 21 20 17 15 14 14 14 13 11 10 10 10 7 5 3 3 5 7 9 10 10 9 9 9 10 11 12 13 14 13 13 13 13 14 12 9 8 10 12 12
56 56 56 57 57 57 57 57 57 57 57 56 56 56 55 54 54 53 52 52 52 51 51 50 49 49 47 45 45 42 39 37 35 34 33 32 32 31 30 30 31 31 32 31 29 28 26 24 23 22 20 18 16 15 14 13 11 10 9 9 8 5 4 4 4 6 8 9 10 10 9 9 10 11 12 14 14 13 13 13 13 14 12 8 5 8 9 11
57 57 57 58 58 58 58 59 59 59 59 59 59 59 58 58 58 57 55 54 54 53 52 52 51 51 50 49 49 47 44 42 40 38 36 35 34 33 32 31 31 32 33 32 31 29 27 25 25 23 22 20 18 16 15 14 12 10 8 8 7 6 4 4 4 6 8 9 10 10 9 9 10 12 13 15 15 14 13 12 12 12 11 8 5 6 8 9
55 56 56 56 56 56 57 57 57 58 58 59 59 59 60 60 60 60 59 58 57 57 55 54 53 53 52 52 52 50 49 47 44 42 40 38 37 36 35 34 33 34 34 33 32 30 28 27 26 24 23 22 21 19 17 15 13 12 9 7 7 6 4 3 4 5 7 9 10 10 10 9 8 10 14 16 15 14 13 12 11 10 10 9 6 6 7 8
52 52 51 51 52 52 53 53 54 54 55 56 56 57 58 59 59 60 60 60 60 59 58 57 57 56 54 54 53 53 53 51 48 46 45 42 40 39 38 37 36 36 35 34 33 32 30 28 28 25 24 24 23 22 19 16 15 14 11 8 7 5 4 3 3 5 6 7 8 9 10 9 9 10 13 16 15 14 13 11 10 10 11 11 9 7 8 9
48 47 47 47 47 47 48 48 48 49 49 50 51 52 52 54 55 56 57 59 59 59 59 60 60 58 57 57 56 55 55 54 52 50 48 47 45 43 42 40 39 37 37 36 35 35 32 30 29 26 25 25 26 25 20 17 17 16 13 10 8 6 5 4 3 5 6 6 7 8 9 10 10 10 12 15 15 15 14 12 11 12 13 14 13 11 11 12
44 44 44 44 44 45 45 45 45 45 46 46 46 47 47 48 49 49 52 53 54 56 57 58 60 59 59 60 59 58 58 57 55 53 52 51 49 47 45 44 42 40 39 38 38 38 35 32 29 26 28 28 27 26 21 19 20 18 16 13 10 8 6 4 3 4 5 6 6 8 9 9 9 9 11 13 14 16 15 14 13 14 14 15 15 13 12 12
43 43 43 43 42 43 44 44 44 44 44 44 44 45 45 46 46 46 48 48 48 50 50 52 56 57 58 59 60 60 61 59 58 57 55 53 52 51 49 48 46 43 42 41 41 41 38 34 30 30 33 31 28 27 23 21 23 21 18 16 13 10 7 6 6 4 5 6 6 6 7 7 7 9 11 12 12 16 17 16 15 15 14 14 14 14 13 11
43 44 43 43 42 42 43 44 43 44 44 43 43 43 43 44 44 44 46 46 46 46 46 47 49 51 53 55 58 60 61 61 61 60 58 57 55 54 53 51 49 47 46 45 44 43 39 34 33 35 37 33 29 27 24 24 26 24 21 18 16 13 9 8 8 6 6 7 7 7 6 6 7 9 10 10 12 15 17 17 17 16 14 13 13 13 14 13
46 46 46 45 44 43 44 45 44 44 44 43 43 42 42 43 43 43 43 44 46 45 44 45 45 47 48 49 52 56 58 60 61 60 61 60 58 57 55 54 53 52 51 47 45 44 40 37 38 41 40 36 31 28 25 26 28 27 23 21 20 17 12 11 10 8 8 9 9 8 7 6 7 9 9 9 10 14 17 17 17 16 14 12 11 12 13 14
47 49 49 49 48 46 46 47 46 46 45 44 44 43 43 42 42 42 41 41 45 44 43 44 44 45 47 46 47 50 53 56 57 59 61 61 61 60 58 57 56 56 54 50 48 46 43 42 44 46 44 38 33 30 27 27 30 29 26 24 24 20 16 14 12 11 11 11 11 11 9 8 8 9 10 9 9 12 15 17 17 16 13 11 10 11 11 12
48 50 51 51 51 49 48 49 49 48 47 46 46 45 44 44 43 42 41 40 43 44 41 41 42 43 45 46 44 45 48 50 52 56 59 60 62 61 60 61 59 57 56 54 52 49 48 48 49 50 46 41 35 32 29 28 30 31 30 28 26 24 21 18 15 14 13 13 14 13 12 11 10 10 10 11 11 11 13 15 16 16 14 12 10 10 11 11
49 50 52 52 52 51 49 49 50 50 49 48 48 48 46 46 46 44 44 42 42 46 41 37 39 40 44 46 44 44 45 46 48 50 52 56 60 60 61 63 61 59 59 58 56 52 52 53 52 52 49 44 39 35 32 29 30 33 33 31 29 27 25 21 18 17 16 15 16 15 14 13 12 11 12 13 14 13 12 13 14 14 13 12 11 11 11 11
49 50 52 52 52 52 50 49 51 52 51 51 50 49 48 47 47 45 45 43 43 47 44 39 39 40 43 45 45 45 43 44 47 47 47 52 56 57 59 62 62 63 62 61 59 55 54 55 54 54 52 49 44 39 35 32 30 33 35 34 32 30 28 25 23 22 20 18 17 15 15 15 14 14 13 13 14 13 13 13 13 13 12 12 11 11 11 11
51 51 53 54 54 55 54 52 53 53 52 53 53 51 49 48 47 46 46 43 42 45 45 44 44 43 43 43 44 45 43 43 46 46 44 47 51 53 55 59 62 65 65 64 60 57 58 59 57 56 56 54 49 43 40 37 33 33 37 38 35 33 31 29 27 25 23 21 19 18 18 16 16 16 16 14 13 14 14 14 14 13 13 13 12 11 11 12
55 54 55 57 56 57 58 56 55 56 55 56 56 54 52 52 49 48 47 44 43 43 43 46 48 46 46 45 44 45 42 42 44 46 44 44 47 49 50 54 59 63 66 65 61 61 63 62 59 59 60 58 52 47 46 43 38 37 40 41 39 37 33 32 31 28 26 25 22 20 19 17 17 18 18 17 16 16 17 16 15 15 15 14 13 14 14 14
59 58 58 60 59 59 61 60 57 57 58 59 59 58 56 55 53 52 49 45 45 46 43 44 48 49 48 47 46 46 43 42 45 45 43 44 46 45 46 50 54 58 63 65 64 65 65 64 63 62 62 59 55 52 52 48 43 42 43 43 43 40 36 34 34 32 29 26 23 22 20 18 19 19 19 18 18 19 19 19 18 18 17 16 15 16 17 16
62 62 61 63 64 62 63 64 62 60 61 61 62 62 60 59 57 55 51 47 49 51 45 43 48 50 49 48 48 49 45 44 46 43 40 43 45 44 44 47 49 53 58 62 65 67 68 68 66 64 62 62 58 57 57 53 47 46 46 45 45 43 39 36 35 35 31 25 24 24 22 22 22 21 21 21 21 21 20 21 22 21 19 18 18 19 18 18
65 64 64 65 66 67 67 66 65 65 63 62 63 64 64 62 61 57 53 52 54 54 49 47 50 51 51 50 49 50 48 47 47 41 38 42 44 43 44 45 46 49 52 58 63 68 71 70 68 65 65 65 61 60 62 57 52 52 50 49 47 45 43 39 37 35 30 26 27 28 26 25 24 23 24 23 23 22 21 22 23 22 22 22 21 20 20 20
69 68 68 67 67 69 70 68 68 69 67 65 65 65 65 66 63 58 57 59 59 57 54 52 51 52 54 54 52 50 50 48 46 41 39 42 42 41 42 45 46 46 48 53 59 66 70 71 70 68 68 68 64 64 65 60 58 58 54 52 50 47 45 41 38 36 31 29 31 32 31 28 26 27 28 26 24 24 23 23 23 23 23 24 23 22 22 21
73 73 72 72 70 71 73 71 71 72 71 70 69 68 68 67 62 59 61 64 62 61 59 55 52 53 55 57 55 52 51 51 48 44 43 43 41 40 40 42 45 45 46 49 54 61 66 70 72 70 69 69 66 67 67 63 63 63 57 55 52 49 47 44 41 38 34 35 37 37 34 30 29 31 30 28 28 27 25 24 24 24 24 24 24 23 24 24
76 76 76 75 74 74 75 75 74 75 75 74 73 73 72 67 62 62 65 65 66 66 65 60 56 54 55 57 58 56 53 53 51 48 47 46 42 40 39 40 42 44 46 48 48 54 61 66 70 72 72 72 69 69 69 67 68 66 62 60 57 52 49 47 45 42 41 43 43 40 36 32 32 34 34 33 31 29 27 26 26 26 25 25 25 26 27 27
79 79 78 79 78 77 77 78 78 78 79 78 78 77 74 68 66 68 68 68 70 71 70 67 62 58 56 56 59 60 57 54 55 54 51 49 46 43 41 41 42 42 45 47 46 49 54 60 67 73 75 74 73 72 73 74 72 70 68 65 60 54 52 52 50 47 48 49 44 40 37 36 37 39 38 35 32 31 31 30 30 28 27 27 27 28 30 29
83 82 82 83 83 81 80 81 82 82 82 82 82 79 74 71 72 74 73 72 73 74 76 73 67 63 61 58 58 62 62 58 58 58 54 52 51 48 45 45 46 44 42 45 47 48 49 54 63 71 74 75 76 75 76 78 76 73 71 66 61 58 59 58 54 52 53 51 44 41 40 41 42 42 40 37 34 36 35 33 32 30 30 30 29 30 31 30
87 87 87 88 88 86 85 85 86 86 86 87 85 79 76 76 77 77 77 77 77 77 79 78 73 68 66 63 60 62 65 64 62 60 58 56 54 53 52 51 50 48 44 44 47 48 47 49 57 65 70 75 79 79 78 79 79 76 71 68 66 66 65 62 57 56 57 51 46 44 44 44 44 42 42 40 38 40 39 36 34 33 34 32 30 31 33 31
91 91 93 94 93 92 91 90 92 92 91 91 87 82 80 80 80 81 81 81 82 82 81 80 78 74 70 67 65 64 67 68 65 62 61 59 57 57 58 58 55 52 51 49 47 47 47 48 51 58 65 73 79 81 81 80 79 76 72 70 70 70 68 64 60 59 56 51 49 49 48 47 44 43 45 44 42 43 42 39 38 36 36 34 31 33 35 33
95 96 97 99 98 98 97 96 97 97 97 95 90 86 85 84 84 85 85 85 85 86 85 82 81 80 76 71 69 69 70 71 69 66 64 63 60 59 61 62 59 56 57 54 49 47 47 47 48 52 59 69 76 79 80 79 78 77 76 74 72 71 71 70 66 61 58 55 53 52 51 48 47 46 47 47 47 47 46 43 40 39 39 36 35 37 37 35
100 100 102 105 104 103 103 102 102 102 101 99 95 92 90 89 88 88 88 88 89 89 88 85 84 84 81 76 74 74 74 74 73 70 68 66 63 63 63 64 63 62 61 59 55 52 49 46 47 50 55 62 68 72 76 80 81 81 81 77 74 73 75 75 70 64 62 59 56 56 54 50 50 50 49 50 51 50 48 46 43 43 42 40 39 40 39 38
105 105 106 109 110 108 107 107 107 106 104 103 100 97 95 94 93 92 91 91 91 91 90 89 88 86 85 81 78 79 79 79 76 73 71 69 66 66 66 65 65 66 65 61 59 57 53 47 46 49 51 53 58 66 74 81 85 85 84 82 78 76 78 80 74 67 65 62 59 58 55 52 53 53 52 53 53 53 51 49 47 46 44 43 44 43 40 41
111 110 111 114 115 114 112 110 110 110 109 106 103 102 101 100 99 97 96 95 94 94 93 93 91 88 88 87 84 82 82 82 81 78 74 71 69 69 69 68 67 69 68 63 61 61 59 52 46 46 48 47 52 62 71 79 84 86 85 84 82 81 81 83 77 71 69 66 63 60 56 54 55 55 54 56 56 57 55 52 50 48 47 46 48 46 42 44
117 115 116 119 120 120 118 115 114 114 114 111 108 107 107 105 104 102 102 101 99 98 98 96 93 92 91 91 89 87 85 85 85 82 77 74 72 70 72 73 70 71 71 66 64 64 63 56 47 45 48 48 49 55 64 73 80 84 85 84 84 83 82 81 78 75 74 71 67 63 59 58 57 57 58 60 61 60 57 55 53 50 50 49 50 50 45 45
124 122 123 126 128 128 126 123 120 120 121 120 117 115 114 112 110 108 107 106 104 103 103 100 98 97 96 95 95 92 90 88 87 85 82 79 77 72 73 76 75 73 73 71 68 66 64 60 52 47 48 49 46 47 55 65 72 78 83 84 85 84 83 82 80 79 78 74 70 68 64 62 60 60 61 62 64 62 59 59 56 52 53 52 51 52 48 46
131 130 130 133 136 136 134 130 128 128 129 128 126 124 122 120 118 115 113 112 110 109 109 107 105 104 101 100 99 97 94 91 88 87 87 85 82 76 74 79 79 76 75 74 71 67 65 63 57 50 47 48 45 43 47 57 66 73 79 84 86 86 86 86 85 84 81 76 75 72 68 66 64 63 65 66 66 64 62 63 60 55 56 55 53 54 51 50
137 136 137 139 142 143 141 138 136 135 135 136 135 133 130 128 125 123 121 119 117 115 114 113 112 111 108 104 102 101 99 96 93 91 91 90 86 81 78 81 83 78 75 76 75 70 67 65 59 53 49 48 48 46 47 52 61 69 76 82 86 88 89 89 89 87 83 80 79 76 72 72 70 67 67 67 66 65 63 65 64 59 58 59 58 57 55 54
141 141 141 143 145 145 143 141 140 140 140 141 140 138 135 133 130 128 126 124 122 121 120 120 118 116 113 109 107 105 103 101 99 96 94 92 90 85 83 85 86 81 76 77 78 75 71 67 61 56 52 50 52 53 50 50 55 62 70 76 82 87 90 91 91 88 85 84 83 78 76 76 73 70 69 68 67 66 65 66 68 66 63 62 62 60 58 59
142 142 142 143 144 143 142 142 141 141 142 141 141 140 136 134 132 132 131 129 128 128 127 126 124 120 117 114 112 111 109 107 104 101 98 95 93 91 88 88 88 83 78 79 79 78 75 69 63 60 57 55 56 57 54 51 52 57 63 70 78 84 89 91 91 89 89 89 84 80 79 78 77 75 73 69 68 69 68 68 71 72 69 66 64 60 59 62
138 137 137 137 137 137 136 138 138 139 140 139 140 139 136 134 134 134 134 133 133 134 133 131 127 123 121 120 118 116 114 112 109 106 103 100 97 95 92 90 90 86 82 80 79 80 77 70 65 63 61 60 60 59 57 55 53 53 56 63 72 79 84 87 89 89 91 91 86 83 83 82 80 80 77 72 70 72 72 71 72 74 74 71 66 61 59 61
124 123 122 122 121 120 121 124 126 128 130 131 132 132 132 132 133 134 136 137 136 136 135 132 129 126 125 125 124 121 118 116 113 110 109 106 102 99 95 92 92 89 83 79 80 81 77 71 68 67 65 63 61 60 60 59 56 52 53 58 66 71 76 81 85 87 90 91 88 86 87 86 83 83 81 78 75 75 76 75 74 74 76 75 70 66 64 63
109 107 106 106 105 105 106 108 110 112 115 116 118 119 120 123 126 131 135 137 138 138 137 134 131 129 127 126 126 125 123 122 119 114 112 108 101 98 96 93 93 89 82 80 82 81 77 74 71 69 68 64 61 62 62 62 60 56 52 53 56 61 68 76 81 85 88 91 91 90 89 87 86 86 86 83 81 79 78 77 75 75 77 77 72 68 68 66
96 96 94 94 94 95 96 97 98 100 101 103 104 105 106 110 114 120 126 130 135 138 137 135 133 131 130 129 129 128 126 124 121 115 111 105 98 95 94 92 90 87 83 83 85 83 79 75 73 71 68 64 63 64 65 68 66 55 46 47 53 57 63 71 78 83 87 90 93 93 91 90 90 92 91 87 84 83 81 79 77 76 76 77 74 71 71 70
Wind_Direction
263 265 266 267 268 269 271 272 273 274 275 277 278 279 280 281 281 283 284 285 287 289 294 300 305 310 314 318 322 325 329 333 337 340 344 348 351 354 359 4 9 14 19 22 22 20 20 22 28 33 34 30 2 230 222 216 211 205 204 222 233 235 236 243 247 246 247 245 240 239 242 245 245 246 247 247 248 249 250 249 249 252 253 251 251 256 260 261
265 266 267 268 269 270 271 272 274 275 276 277 278 278 279 280 280 281 282 282 284 285 286 290 295 300 304 309 312 316 320 323 327 330 333 337 340 344 347 352 358 3 9 14 16 17 16 15 19 25 28 27 22 297 222 215 213 207 206 217 229 234 235 238 246 246 244 246 242 238 242 246 245 245 246 247 248 249 250 250 250 252 252 253 256 257 257 259
265 267 268 269 270 271 272 272 273 274 275 276 277 278 279 279 279 279 279 279 280 281 283 284 286 291 295 300 303 307 310 313 317 320 322 327 328 332 335 340 347 352 358 3 8 12 13 12 12 17 23 24 21 15 219 208 210 208 208 218 229 238 239 236 243 249 246 246 247 244 245 248 247 245 245 247 248 249 250 251 252 253 254 257 258 254 253 258
267 267 268 269 270 271 272 272 273 274 274 275 276 277 278 278 278 278 279 278 278 277 278 279 280 282 285 290 294 299 301 303 308 309 312 317 318 321 325 327 334 341 347 352 358 4 7 9 9 12 17 22 21 18 19 190 203 207 206 213 228 236 241 241 240 242 243 242 243 247 248 249 247 245 245 246 248 248 249 250 251 253 254 255 254 251 255 259
268 269 269 270 270 271 271 272 273 273 274 274 274 275 276 277 277 277 277 277 277 276 275 275 276 276 277 280 284 290 292 294 299 299 302 308 309 312 316 318 324 329 336 341 347 354 0 4 5 7 12 18 22 19 18 41 184 204 207 211 225 233 240 245 240 233 236 240 241 246 249 248 246 244 244 244 245 245 245 246 248 250 252 252 251 254 259 259
270 270 270 270 270 271 271 272 272 272 273 273 273 274 275 275 276 276 276 276 276 276 274 273 273 273 273 273 275 280 282 287 289 288 292 298 300 304 307 310 315 319 324 330 336 343 350 357 359 2 6 13 20 21 18 23 58 192 211 216 225 237 244 242 235 232 234 238 242 243 242 241 240 240 240 240 240 240 241 242 244 246 250 252 252 255 257 255
270 270 270 270 270 270 270 270 270 271 271 271 271 272 272 273 274 275 275 276 275 275 274 273 272 271 270 270 270 270 273 279 278 279 285 290 292 296 299 302 307 311 316 320 325 332 339 348 353 356 359 6 15 21 20 19 33 60 206 220 229 238 239 227 223 228 228 228 232 233 233 234 233 234 235 236 237 238 240 241 241 243 247 248 247 249 248 247
269 269 269 268 268 268 268 268 268 268 268 268 268 268 269 269 270 272 273 274 274 274 274 273 272 271 270 268 267 265 266 269 270 274 279 281 283 287 292 296 300 304 307 311 316 321 329 337 344 349 352 358 7 17 21 19 21 35 52 214 228 229 222 217 220 223 218 214 220 224 228 232 233 235 236 237 238 238 238 236 231 226 232 235 236 238 235 238
268 268 268 268 268 267 267 267 267 266 266 266 266 266 266 266 266 267 269 270 271 272 272 272 271 270 269 268 266 264 260 262 267 270 272 274 278 282 285 290 294 297 300 303 307 312 318 325 333 341 345 350 358 8 19 21 18 19 27 46 215 217 217 221 225 222 209 199 206 219 232 240 242 241 239 238 236 232 226 220 213 210 219 229 233 235 232 234
266 267 267 267 267 267 267 267 267 266 266 266 265 264 264 264 264 264 265 266 267 268 269 269 269 268 267 266 265 262 259 259 264 266 268 271 275 278 281 284 287 291 293 295 299 304 309 314 320 329 337 342 348 357 9 18 19 14 10 14 306 214 217 225 230 225 206 189 193 213 232 238 239 237 234 231 225 219 213 207 206 206 211 226 235 236 235 234
266 266 266 266 267 267 267 267 267 266 266 266 265 264 264 263 263 263 263 263 264 264 265 266 266 266 265 264 262 260 258 257 262 265 266 268 270 272 275 278 281 283 286 289 291 295 300 304 309 316 325 332 338 346 355 9 16 13 6 3 355 287 215 217 221 222 209 191 187 201 217 222 223 225 223 221 216 211 205 202 205 205 204 217 231 235 235 234
268 268 268 268 268 267 267 267 266 266 266 266 265 265 264 263 262 262 261 261 261 262 262 263 263 263 263 262 261 259 257 256 258 263 264 265 266 267 270 273 275 277 279 282 285 287 291 295 299 304 311 320 327 333 340 352 6 11 7 3 353 337 252 213 205 206 208 197 189 193 205 212 214 218 219 217 213 206 200 198 201 203 203 209 227 234 235 236
270 270 270 269 269 269 269 268 268 267 267 266 266 265 264 263 263 262 261 261 260 260 260 260 260 260 260 260 260 258 257 254 254 258 260 261 263 264 265 268 269 271 273 276 278 281 283 287 291 295 300 306 313 319 326 335 347 359 4 5 356 334 313 254 209 200 204 200 191 191 198 206 211 216 221 219 213 202 194 197 203 204 200 201 223 235 235 238
270 270 270 270 270 270 270 270 269 269 268 268 267 266 265 264 263 262 261 260 260 259 258 258 258 258 258 257 257 257 256 254 253 253 255 257 259 261 261 263 265 267 269 271 273 276 278 280 283 287 291 295 299 304 311 318 328 341 352 359 358 343 314 283 242 207 194 190 189 189 193 204 212 216 221 222 215 204 194 198 208 208 198 187 208 232 235 235
272 271 272 271 271 271 271 271 270 270 269 269 268 268 267 266 265 263 262 261 260 259 258 258 257 257 256 256 256 255 254 253 252 251 251 253 255 257 259 260 262 264 266 268 270 272 274 276 277 280 284 286 288 292 297 303 312 320 334 343 347 348 322 281 255 222 193 187 191 192 194 205 216 218 222 223 216 204 197 196 203 204 192 176 184 213 221 224
273 273 273 273 273 272 272 271 271 271 270 270 269 268 267 267 266 265 264 262 261 260 258 257 257 256 255 255 255 254 253 251 250 250 249 249 251 253 255 256 258 261 263 265 267 269 270 272 272 274 276 279 282 282 284 291 297 301 311 318 327 345 335 288 249 227 206 197 199 199 200 207 222 224 225 224 213 201 194 187 187 187 175 158 160 183 193 203
275 274 274 274 274 274 273 273 272 272 271 271 270 269 268 268 267 266 265 264 262 260 259 258 257 255 255 254 254 254 253 251 249 248 248 247 248 249 251 253 254 257 261 263 265 266 266 267 268 269 271 274 275 274 274 280 287 288 292 299 308 325 324 289 234 218 215 209 207 207 206 210 221 225 225 219 206 194 186 175 171 168 155 140 137 151 157 163
276 276 276 276 276 276 275 275 275 274 274 273 273 272 271 270 268 268 267 265 264 262 261 259 257 256 255 254 253 253 253 252 249 247 247 246 246 246 247 249 251 253 257 260 262 263 263 263 265 268 268 266 266 268 270 274 277 279 282 286 290 289 290 291 240 210 216 220 217 216 212 210 212 211 215 211 199 188 177 168 166 158 146 136 133 138 143 146
277 277 276 276 277 277 277 277 277 277 277 276 276 275 275 274 272 271 270 268 267 265 263 261 259 257 255 254 253 252 252 252 251 248 246 245 244 244 245 246 247 249 252 255 258 260 260 260 263 265 263 260 261 265 269 270 269 271 273 275 276 272 276 288 265 203 202 214 216 213 208 205 205 200 204 205 195 182 172 165 164 158 149 144 141 143 147 150
275 275 275 276 276 276 276 276 276 276 276 277 277 277 277 277 277 276 274 272 270 269 267 265 262 259 257 255 253 252 251 250 250 249 247 245 244 243 243 243 244 245 247 250 253 256 258 259 261 262 259 258 259 261 264 265 264 264 265 266 268 267 271 276 265 220 184 186 192 193 187 186 192 197 202 204 197 183 171 165 166 162 156 151 149 149 152 156
275 275 274 274 274 274 274 274 273 273 274 274 275 275 276 276 277 277 277 277 274 273 271 269 267 264 259 257 255 252 251 250 249 249 248 246 244 242 241 241 242 243 243 245 248 252 256 259 259 257 256 256 255 256 257 258 260 260 260 261 263 259 256 261 258 241 207 185 182 186 183 177 183 199 205 202 200 190 174 168 170 167 162 159 158 156 156 160
275 275 275 274 274 272 272 272 271 271 272 272 272 272 272 273 274 274 275 276 276 276 275 273 272 269 264 260 258 255 252 250 248 247 247 246 244 243 241 240 240 241 241 242 245 249 253 256 255 253 253 252 251 252 251 252 256 258 257 258 259 254 249 250 248 244 232 211 193 191 196 196 191 203 208 197 197 194 181 174 176 174 170 170 169 165 164 166
277 277 277 276 276 274 272 271 271 271 271 271 271 270 270 270 270 271 271 272 273 274 274 274 274 272 269 265 262 260 256 253 250 248 246 246 245 243 242 240 239 240 240 240 241 244 248 250 251 251 251 249 249 249 248 248 253 257 257 255 255 253 248 244 239 235 234 228 216 201 201 210 207 207 206 202 207 201 188 182 181 182 182 183 182 175 174 173
277 278 278 278 277 276 275 273 273 273 273 273 273 272 271 270 269 268 268 268 270 271 269 270 271 270 270 269 266 264 261 257 253 250 247 246 244 243 242 241 238 238 239 239 238 240 244 247 249 251 251 250 248 247 246 247 250 254 255 253 253 252 247 241 236 233 230 231 228 216 206 207 209 209 202 202 213 209 197 191 189 189 191 194 192 183 181 182
278 278 278 278 277 276 275 274 275 275 275 276 275 275 274 273 272 270 268 267 268 269 267 266 267 266 267 269 269 267 266 263 258 252 249 247 245 242 242 241 240 238 237 237 237 236 240 245 248 250 252 250 247 245 244 243 246 251 253 253 251 250 248 241 236 236 231 228 230 225 216 210 205 205 201 196 201 206 201 198 199 197 199 201 194 187 190 192
280 280 279 278 278 276 275 274 275 275 277 277 276 276 276 276 276 275 272 270 269 269 268 266 265 266 266 267 267 267 267 266 263 257 252 250 247 243 242 241 240 239 237 236 235 235 238 242 245 248 250 250 247 243 243 240 241 247 251 252 250 248 248 244 239 236 233 229 229 227 224 219 210 204 205 200 195 199 204 203 206 206 205 207 197 190 196 200
281 281 280 280 279 278 277 275 275 275 276 276 276 276 276 276 276 276 276 275 272 271 271 269 265 265 266 265 265 265 264 264 265 262 257 254 251 246 243 241 239 239 237 235 234 234 236 239 241 245 248 248 246 244 243 240 237 240 246 250 249 247 245 244 241 237 234 232 228 228 226 222 218 211 209 208 201 203 209 209 212 211 207 206 201 196 200 206
281 280 280 280 280 280 279 277 276 276 275 275 275 275 275 275 275 276 276 277 276 273 272 272 270 267 265 265 264 263 261 261 263 264 262 260 255 249 244 242 240 238 238 236 234 233 235 236 238 241 244 246 245 243 242 239 234 234 240 245 247 246 243 242 243 239 235 233 229 230 229 223 223 221 216 215 211 211 212 212 214 214 211 206 203 204 207 211
280 280 280 279 279 279 279 279 277 276 276 275 275 275 275 275 276 276 277 279 279 275 272 273 273 270 266 265 266 264 261 258 259 262 263 262 259 254 249 245 241 239 238 236 234 233 234 235 236 237 241 244 245 244 242 237 233 233 236 241 245 245 244 242 243 242 237 233 232 234 234 230 228 226 226 223 221 218 213 212 214 215 216 214 213 215 213 215
279 279 279 279 278 278 277 278 278 277 276 276 276 276 275 275 275 276 279 280 278 276 276 275 273 272 270 267 266 264 262 260 259 258 260 261 260 258 256 251 244 241 239 236 234 233 233 234 234 235 239 242 243 244 244 239 235 235 235 237 242 244 245 242 242 243 241 236 235 236 236 236 234 231 230 228 226 224 218 214 215 215 219 221 221 222 220 220
279 278 277 277 277 277 276 275 276 276 275 275 275 275 275 275 275 277 280 279 275 276 278 275 271 272 272 269 267 265 263 261 258 255 256 258 258 259 259 257 250 244 241 237 234 233 232 232 233 233 235 239 240 242 244 241 237 237 236 236 239 242 243 243 242 243 243 242 239 238 235 235 237 235 233 231 229 228 225 221 218 217 221 224 225 226 227 227
278 277 276 275 274 274 274 273 273 273 273 272 272 272 273 273 274 277 278 275 274 275 274 272 271 272 271 269 268 266 264 262 258 255 255 255 255 256 258 259 257 250 244 239 236 234 233 232 232 232 233 236 238 241 243 242 240 237 236 237 239 241 243 244 244 244 243 244 242 239 236 233 235 237 235 233 232 230 228 227 224 221 222 226 228 228 230 232
277 277 277 275 274 272 271 271 270 271 271 270 270 269 269 269 272 275 274 272 272 273 272 270 269 268 268 268 268 266 265 264 261 257 257 255 254 254 256 258 259 257 250 242 238 236 234 232 231 231 233 234 236 240 242 242 242 238 235 236 238 239 242 243 245 245 245 244 242 239 237 233 234 238 238 235 234 232 230 230 230 227 226 228 230 230 231 232
278 278 277 277 275 273 271 270 269 268 268 268 268 268 268 269 270 270 270 270 270 269 269 269 267 265 265 266 267 266 265 265 263 260 258 257 255 254 255 258 259 259 256 248 241 238 235 233 232 230 231 232 233 237 240 240 241 239 236 235 234 234 237 239 240 242 243 242 240 238 237 234 234 237 238 236 235 235 233 232 231 230 229 229 230 232 233 233
278 278 277 277 275 273 272 271 269 268 267 267 267 268 269 270 269 267 266 266 267 267 267 267 267 266 264 262 264 266 265 263 263 262 259 259 258 256 256 260 259 258 259 255 248 243 237 234 233 230 229 231 232 234 236 238 238 239 237 233 232 232 234 235 234 235 239 240 238 238 238 235 234 235 236 236 237 238 236 233 232 230 229 228 228 233 236 235
276 276 276 275 274 273 272 271 270 269 268 267 266 267 269 269 267 266 265 264 263 264 265 265 265 265 264 262 260 262 263 262 261 261 261 260 261 260 259 262 262 259 259 259 254 248 241 235 233 232 229 230 232 233 235 237 238 239 238 235 234 235 234 234 234 233 236 238 237 238 239 238 237 237 238 236 236 239 238 236 235 234 232 230 229 234 239 239
275 275 274 273 273 272 271 270 269 268 268 267 267 268 267 266 265 265 265 264 263 262 262 263 263 262 262 261 258 258 260 260 260 261 262 261 262 264 263 262 263 262 260 260 258 254 249 240 234 233 231 229 231 232 233 236 237 238 240 238 236 235 234 233 234 234 235 237 237 237 237 239 239 239 241 238 236 239 239 239 238 238 237 235 233 237 242 242
274 274 273 273 272 272 271 269 268 268 267 267 268 268 267 265 264 263 262 262 262 261 261 262 263 262 260 259 259 257 257 258 259 259 260 261 261 263 264 263 262 263 262 261 258 256 254 248 239 233 232 231 231 231 232 234 237 238 239 239 238 237 235 234 234 236 237 236 237 238 237 238 239 239 242 241 238 239 240 239 239 239 240 240 238 240 243 243
273 273 272 272 272 271 270 269 268 268 268 267 267 266 265 264 263 262 261 260 260 260 260 260 261 261 260 259 258 257 256 257 257 258 258 259 260 260 262 263 263 263 264 262 259 257 255 254 247 237 233 233 232 232 233 234 236 238 238 238 239 239 237 235 234 235 237 234 235 238 238 238 239 239 241 242 240 240 241 240 239 241 243 243 242 243 245 244
272 272 272 271 271 271 270 270 269 268 268 268 267 265 264 262 261 261 260 260 259 259 259 258 258 259 259 258 257 257 257 256 256 257 257 257 258 258 260 262 263 263 263 262 260 259 254 254 254 245 235 234 233 233 234 234 233 235 237 237 237 238 239 237 233 232 236 235 234 236 238 238 240 240 240 241 242 242 242 242 240 240 242 243 243 244 246 247
272 272 271 271 271 270 270 269 268 268 267 267 266 265 263 262 261 260 259 258 258 258 258 257 256 256 257 257 255 255 256 256 256 256 256 256 256 257 258 260 262 262 262 261 261 261 256 251 254 253 243 235 234 233 233 234 233 232 234 235 235 236 238 238 233 230 234 235 234 236 238 238 240 241 241 242 243 243 243 243 241 240 241 242 243 244 245 249
272 271 271 270 270 269 268 267 267 267 266 265 264 263 262 261 260 259 258 257 256 257 256 256 255 255 255 255 254 254 255 256 257 256 255 255 254 255 256 256 258 260 261 260 261 262 259 250 249 257 253 240 234 233 233 234 234 232 232 234 235 235 237 239 235 231 233 234 233 234 236 238 240 241 242 243 243 242 243 243 242 242 242 242 244 243 242 246
271 270 270 269 269 268 267 266 265 265 265 264 262 260 260 259 259 258 258 257 256 255 255 255 254 254 253 253 253 252 252 254 256 256 255 254 252 253 254 255 256 258 260 260 259 261 261 254 247 254 259 248 236 235 235 235 235 235 232 233 236 236 237 240 239 236 234 233 233 232 232 234 237 238 240 242 243 243 243 244 243 243 244 243 245 247 244 244
270 269 269 269 268 268 267 266 265 264 263 262 261 259 258 258 257 257 257 256 256 255 255 255 254 253 252 252 251 251 251 251 253 256 255 254 252 250 252 254 255 256 258 259 259 260 261 258 250 249 257 255 242 236 239 238 237 237 235 233 235 236 237 239 239 238 235 233 233 233 232 232 234 236 237 239 243 245 245 245 244 243 245 244 246 249 248 245
270 269 269 268 268 268 267 267 266 264 264 263 261 260 258 257 256 256 255 255 255 255 255 255 254 252 251 250 250 250 251 251 251 253 254 253 252 250 250 253 254 254 255 257 259 260 260 259 255 249 253 258 252 242 240 240 238 237 235 233 233 234 235 236 237 237 235 233 233 233 233 233 233 234 235 236 239 243 244 245 245 243 243 244 244 248 249 247
271 270 270 269 269 268 268 267 267 265 264 263 262 261 259 258 257 257 256 255 255 254 254 253 253 252 252 251 250 250 250 250 250 250 251 252 252 250 249 251 253 252 252 255 258 259 259 259 257 253 251 255 257 251 242 240 239 237 236 235 233 233 234 235 236 236 235 234 233 232 232 233 233 232 235 236 239 242 244 247 248 245 242 243 243 245 248 250
273 272 271 270 269 269 269 268 267 265 264 263 262 262 261 260 259 258 257 256 255 254 253 252 251 251 252 252 251 250 249 249 249 248 249 250 250 249 248 249 252 252 251 253 256 257 258 258 258 256 254 254 257 255 248 243 242 240 237 236 235 233 233 234 235 236 236 235 233 231 231 234 234 233 233 235 238 241 242 245 248 248 244 242 242 243 246 249
274 273 272 271 270 269 268 268 266 265 264 263 263 262 261 260 259 258 256 255 254 252 251 250 250 250 250 250 250 249 249 248 248 247 247 247 248 248 247 248 251 252 250 250 253 255 257 258 257 256 256 255 256 256 253 248 245 242 239 237 237 235 234 234 235 236 237 236 234 232 232 234 236 235 233 233 236 239 240 240 244 247 246 244 243 244 245 247
275 273 272 270 269 268 267 266 265 264 263 262 261 261 260 259 258 256 255 254 253 252 251 251 251 250 249 249 248 248 248 248 248 248 247 247 246 247 247 248 252 253 249 248 251 254 255 257 257 256 256 257 257 256 255 253 250 247 243 240 239 238 236 235 235 236 238 238 236 235 234 233 235 237 236 233 233 235 238 238 239 243 246 246 244 243 243 245
275 274 272 271 270 268 267 266 265 263 262 261 260 259 258 257 256 255 254 253 252 252 252 252 252 251 250 250 249 249 248 248 248 247 246 246 245 246 247 248 251 253 250 247 249 252 254 255 255 256 256 256 256 257 257 255 253 250 247 245 241 239 239 238 236 235 237 238 237 236 235 234 234 237 238 236 233 233 235 237 238 240 244 246 246 244 244 245
276 274 273 271 270 269 267 265 264 262 261 260 259 258 256 255 254 253 252 251 251 250 250 250 250 249 248 248 248 249 248 248 248 248 248 248 248 248 249 250 252 254 251 248 248 251 254 254 254 255 255 256 256 258 258 258 255 250 249 250 248 243 241 240 238 236 236 237 237 236 235 235 234 236 237 237 237 235 235 236 237 239 243 246 247 247 246 246
275 273 272 270 269 267 266 264 263 261 260 259 258 256 255 253 251 250 249 249 249 248 248 248 248 247 246 245 244 245 246 247 250 252 253 254 255 254 253 252 252 253 251 247 247 249 252 253 253 254 255 256 256 256 257 257 254 249 250 254 252 246 241 239 238 237 235 235 236 236 236 235 235 235 235 236 237 238 238 237 237 239 242 246 248 248 248 248
Height
10992 10993 10993 10993 10993 10993 10993 10993 10993 10993 10993 10994 10994 10994 10994 10994 10995 10995 10996 10996 10997 10996 10996 10996 10996 10996 10995 10994 10993 10992 10992 10992 10991 10991 10991 10990 10990 10989 10989 10988 10987 10986 10985 10984 10983 10982 10981 10979 10978 10977 10976 10975 10974 10972 10972 10973 10975 10976 10975 10973 10974 10974 10974 10976 10977 10977 10977 10978 10978 10980 10981 10983 10984 10985 10986 10987 10988 10989 10990 10991 10992 10992 10993 10993 10993 10992 10991 10990
10990 10991 10991 10991 10991 10991 10991 10991 10991 10991 10992 10992 10992 10992 10992 10993 10993 10993 10994 10995 10995 10995 10995 10995 10995 10995 10995 10994 10994 10993 10992 10991 10991 10991 10990 10990 10990 10990 10989 10988 10988 10987 10986 10985 10984 10983 10981 10980 10979 10977 10976 10975 10973 10971 10970 10971 10972 10973 10972 10971 10972 10972 10972 10975 10974 10974 10975 10976 10976 10978 10979 10980 10982 10983 10984 10985 10986 10987 10988 10989 10989 10990 10991 10990 10991 10991 10989 10988
10988 10988 10989 10989 10989 10989 10989 10989 10989 10990 10990 10990 10990 10990 10990 10990 10991 10991 10992 10993 10993 10994 10994 10995 10995 10994 10994 10994 10994 10993 10992 10991 10990 10990 10990 10990 10989 10989 10989 10988 10988 10987 10986 10985 10985 10983 10982 10980 10979 10978 10976 10975 10973 10971 10969 10969 10969 10971 10971 10971 10971 10970 10971 10973 10973 10973 10973 10974 10975 10976 10977 10978 10979 10980 10982 10983 10984 10985 10986 10987 10988 10988 10988 10988 10989 10989 10988 10987
10986 10986 10986 10986 10986 10986 10987 10987 10987 10987 10988 10988 10988 10988 10988 10988 10988 10989 10989 10990 10991 10992 10993 10993 10993 10994 10994 10994 10993 10993 10992 10991 10990 10989 10989 10989 10988 10988 10988 10988 10988 10987 10987 10986 10985 10984 10983 10981 10979 10978 10976 10975 10973 10971 10969 10968 10968 10969 10969 10969 10969 10969 10970 10971 10972 10972 10972 10974 10974 10975 10976 10977 10977 10978 10980 10981 10982 10983 10984 10985 10985 10986 10986 10987 10987 10986 10986 10985
10983 10984 10984 10984 10984 10984 10984 10984 10984 10985 10985 10985 10986 10986 10985 10985 10985 10986 10986 10987 10988 10989 10990 10991 10992 10992 10993 10993 10993 10992 10991 10990 10990 10988 10987 10988 10987 10987 10987 10987 10987 10987 10987 10986 10985 10984 10983 10982 10980 10978 10977 10975 10973 10972 10970 10968 10967 10967 10967 10967 10967 10968 10969 10970 10971 10971 10971 10973 10973 10974 10975 10975 10976 10976 10978 10979 10979 10980 10981 10982 10983 10983 10984 10984 10985 10984 10984 10983
10980 10980 10980 10980 10981 10981 10981 10981 10981 10982 10982 10982 10983 10983 10983 10983 10982 10983 10983 10984 10985 10986 10987 10988 10989 10990 10991 10992 10992 10992 10990 10989 10988 10987 10986 10987 10986 10986 10986 10986 10987 10986 10986 10986 10985 10984 10984 10983 10981 10979 10977 10976 10974 10972 10971 10969 10967 10967 10967 10967 10967 10968 10968 10969 10969 10969 10970 10971 10972 10973 10973 10974 10974 10975 10976 10977 10978 10978 10979 10980 10981 10981 10982 10982 10982 10982 10982 10982
10977 10977 10977 10977 10977 10977 10977 10978 10978 10978 10978 10979 10979 10980 10980 10980 10980 10980 10980 10981 10982 10982 10983 10985 10986 10987 10988 10990 10990 10991 10990 10988 10986 10985 10985 10986 10985 10985 10985 10985 10985 10985 10985 10985 10985 10984 10984 10983 10982 10980 10978 10976 10975 10973 10971 10970 10968 10967 10966 10967 10967 10968 10968 10968 10968 10969 10970 10971 10971 10972 10972 10973 10973 10974 10975 10975 10976 10977 10977 10978 10979 10980 10980 10980 10980 10980 10980 10980
10973 10973 10973 10973 10973 10973 10973 10974 10974 10974 10974 10975 10976 10976 10977 10977 10977 10977 10977 10978 10978 10979 10980 10981 10983 10984 10985 10987 10988 10989 10989 10986 10982 10984 10985 10984 10984 10984 10984 10983 10984 10984 10984 10984 10984 10984 10983 10983 10982 10981 10979 10977 10975 10974 10972 10971 10969 10967 10967 10966 10967 10967 10967 10968 10968 10968 10969 10970 10970 10971 10972 10972 10973 10973 10973 10974 10975 10975 10976 10977 10978 10979 10979 10979 10979 10979 10979 10979
10968 10968 10968 10968 10969 10969 10969 10970 10970 10970 10970 10971 10972 10972 10973 10973 10974 10974 10974 10974 10975 10976 10976 10978 10979 10981 10982 10983 10985 10986 10987 10984 10980 10982 10983 10982 10983 10983 10982 10982 10982 10982 10983 10983 10983 10983 10983 10982 10982 10981 10980 10978 10976 10974 10973 10971 10970 10969 10968 10967 10967 10967 10967 10967 10968 10968 10968 10968 10969 10970 10971 10971 10972 10972 10973 10973 10974 10975 10975 10976 10977 10977 10978 10978 10978 10978 10979 10979
10964 10964 10964 10964 10964 10964 10965 10965 10965 10966 10966 10967 10967 10968 10969 10969 10970 10971 10971 10971 10971 10972 10973 10974 10975 10977 10978 10979 10981 10982 10983 10982 10979 10980 10981 10981 10981 10981 10981 10981 10980 10981 10981 10981 10982 10982 10982 10982 10981 10981 10980 10978 10977 10975 10974 10972 10971 10970 10969 10968 10967 10967 10967 10967 10967 10967 10967 10967 10968 10969 10970 10971 10972 10972 10972 10973 10974 10974 10974 10975 10975 10976 10976 10977 10977 10978 10978 10978
10959 10959 10959 10959 10959 10959 10959 10960 10960 10961 10961 10962 10963 10964 10964 10965 10966 10966 10967 10967 10968 10968 10969 10970 10971 10973 10974 10976 10977 10978 10980 10980 10977 10978 10980 10979 10979 10979 10979 10979 10979 10979 10979 10979 10980 10981 10981 10981 10981 10980 10980 10979 10977 10976 10974 10973 10972 10971 10970 10969 10968 10967 10967 10967 10967 10967 10967 10967 10967 10969 10969 10970 10971 10972 10972 10973 10973 10973 10973 10974 10974 10975 10975 10976 10976 10977 10977 10978
10954 10954 10954 10953 10953 10954 10954 10954 10954 10955 10956 10956 10957 10958 10959 10960 10961 10961 10962 10963 10963 10964 10965 10966 10967 10968 10970 10971 10972 10974 10976 10977 10976 10976 10977 10977 10976 10977 10977 10977 10977 10976 10976 10977 10978 10979 10980 10980 10980 10980 10980 10979 10978 10977 10975 10974 10973 10972 10970 10969 10968 10968 10968 10967 10966 10966 10967 10967 10967 10968 10969 10970 10971 10971 10972 10973 10973 10973 10973 10973 10973 10973 10974 10974 10975 10976 10976 10977
10948 10948 10948 10948 10948 10948 10948 10948 10948 10949 10950 10951 10951 10952 10953 10954 10955 10956 10957 10958 10958 10959 10960 10961 10963 10964 10965 10967 10967 10969 10972 10973 10973 10973 10974 10974 10974 10974 10975 10974 10974 10974 10974 10975 10975 10976 10978 10978 10978 10979 10979 10978 10978 10977 10976 10975 10973 10972 10971 10970 10969 10968 10968 10967 10966 10966 10966 10967 10967 10968 10969 10970 10970 10971 10972 10972 10972 10972 10972 10972 10972 10973 10973 10973 10974 10975 10975 10976
10942 10942 10942 10942 10942 10942 10942 10942 10942 10942 10943 10944 10945 10946 10947 10947 10949 10950 10951 10952 10953 10954 10955 10956 10958 10959 10960 10962 10962 10964 10967 10968 10970 10970 10971 10971 10971 10971 10972 10972 10972 10971 10971 10972 10973 10974 10975 10977 10977 10977 10977 10977 10977 10976 10976 10975 10974 10973 10971 10970 10969 10968 10968 10967 10966 10966 10966 10967 10967 10968 10968 10969 10970 10970 10971 10972 10972 10972 10971 10972 10972 10972 10972 10972 10973 10974 10975 10975
10936 10936 10935 10935 10935 10936 10935 10935 10935 10935 10936 10937 10938 10939 10939 10940 10941 10943 10945 10946 10947 10948 10950 10951 10952 10953 10955 10956 10957 10959 10961 10963 10965 10966 10967 10968 10968 10968 10969 10969 10969 10969 10968 10969 10970 10971 10973 10974 10975 10976 10976 10976 10976 10975 10975 10974 10974 10973 10972 10970 10969 10969 10968 10967 10967 10967 10967 10967 10967 10967 10968 10969 10969 10969 10970 10971 10971 10971 10971 10971 10972 10971 10971 10971 10972 10973 10974 10975
10930 10930 10929 10929 10929 10929 10929 10929 10929 10928 10929 10929 10930 10931 10932 10933 10934 10935 10937 10939 10940 10942 10943 10945 10946 10948 10949 10950 10951 10953 10954 10957 10959 10961 10963 10964 10964 10965 10965 10966 10966 10965 10966 10966 10967 10969 10970 10972 10973 10974 10974 10974 10974 10974 10974 10973 10973 10973 10972 10971 10969 10969 10968 10967 10967 10967 10967 10967 10967 10967 10967 10968 10968 10968 10969 10970 10970 10971 10971 10971 10971 10971 10970 10970 10971 10972 10973 10975
10924 10924 10923 10923 10922 10922 10922 10922 10922 10922 10922 10922 10923 10924 10925 10925 10926 10927 10929 10930 10932 10934 10936 10938 10939 10941 10944 10944 10945 10946 10947 10950 10954 10955 10957 10959 10960 10961 10961 10962 10963 10963 10963 10964 10964 10965 10967 10969 10970 10972 10973 10973 10972 10972 10972 10972 10972 10972 10971 10970 10969 10969 10968 10967 10967 10967 10967 10967 10967 10967 10967 10968 10968 10968 10969 10969 10970 10970 10970 10970 10971 10971 10970 10970 10971 10972 10974 10975
10919 10919 10918 10918 10917 10916 10916 10916 10916 10916 10916 10916 10917 10918 10918 10918 10919 10921 10921 10921 10924 10926 10928 10929 10930 10934 10937 10937 10939 10940 10941 10944 10947 10949 10951 10953 10955 10956 10957 10958 10959 10960 10960 10961 10961 10961 10964 10965 10967 10970 10970 10970 10970 10969 10971 10971 10971 10970 10970 10970 10969 10969 10968 10967 10967 10966 10966 10967 10967 10967 10967 10967 10967 10968 10969 10969 10969 10969 10970 10970 10971 10971 10971 10970 10971 10973 10975 10976
10914 10914 10914 10914 10913 10912 10912 10911 10911 10911 10911 10911 10911 10912 10912 10911 10913 10915 10913 10914 10917 10918 10921 10921 10922 10927 10928 10928 10932 10933 10933 10937 10939 10942 10945 10947 10949 10951 10952 10953 10954 10956 10957 10957 10957 10957 10959 10962 10964 10967 10966 10966 10967 10967 10969 10970 10969 10969 10969 10969 10968 10968 10968 10968 10967 10966 10966 10966 10966 10967 10967 10967 10967 10968 10969 10970 10969 10969 10969 10970 10971 10972 10971 10971 10971 10973 10975 10977
10911 10910 10910 10910 10910 10908 10907 10907 10907 10906 10907 10907 10906 10907 10907 10906 10908 10908 10906 10908 10911 10911 10913 10914 10914 10918 10920 10920 10923 10924 10925 10929 10932 10934 10938 10940 10942 10945 10946 10948 10949 10952 10953 10953 10953 10953 10955 10959 10962 10962 10961 10963 10965 10965 10967 10968 10967 10967 10967 10967 10967 10967 10967 10967 10967 10966 10966 10965 10966 10967 10967 10967 10967 10968 10970 10970 10970 10970 10969 10970 10971 10972 10972 10972 10972 10973 10975 10976
10907 10906 10906 10907 10907 10906 10903 10903 10903 10902 10902 10903 10903 10903 10902 10902 10903 10903 10901 10903 10905 10906 10907 10908 10907 10909 10912 10913 10914 10915 10917 10921 10924 10926 10930 10933 10935 10938 10940 10942 10944 10946 10947 10948 10949 10950 10953 10957 10958 10956 10955 10959 10962 10963 10965 10965 10964 10965 10966 10966 10966 10966 10967 10966 10967 10967 10966 10966 10966 10966 10967 10967 10968 10969 10970 10971 10971 10970 10970 10970 10972 10972 10973 10973 10973 10974 10974 10976
10902 10902 10902 10902 10903 10903 10900 10898 10899 10898 10898 10899 10899 10899 10898 10898 10899 10899 10899 10898 10898 10901 10902 10901 10902 10901 10903 10906 10906 10907 10910 10911 10916 10919 10921 10924 10928 10931 10933 10936 10939 10939 10940 10944 10946 10948 10951 10953 10951 10949 10950 10954 10958 10961 10963 10963 10962 10962 10964 10964 10964 10965 10966 10966 10966 10966 10967 10966 10965 10966 10967 10967 10968 10969 10970 10971 10971 10971 10971 10971 10972 10973 10973 10973 10974 10974 10975 10976
10898 10897 10897 10897 10898 10899 10897 10894 10894 10894 10894 10894 10894 10895 10895 10894 10895 10895 10896 10894 10892 10896 10898 10896 10897 10895 10895 10899 10900 10900 10902 10903 10908 10911 10912 10916 10920 10924 10927 10930 10931 10933 10935 10940 10942 10944 10947 10946 10943 10942 10945 10950 10955 10958 10960 10960 10960 10960 10961 10962 10962 10963 10964 10965 10965 10965 10966 10966 10966 10965 10966 10967 10968 10968 10969 10969 10971 10972 10972 10972 10973 10973 10974 10974 10974 10975 10976 10976
10894 10892 10891 10891 10891 10893 10893 10890 10889 10890 10889 10890 10890 10890 10890 10890 10891 10891 10892 10892 10888 10890 10894 10892 10891 10890 10889 10892 10895 10895 10895 10897 10901 10901 10904 10909 10910 10916 10920 10921 10924 10928 10931 10933 10936 10939 10941 10939 10937 10938 10941 10947 10951 10954 10957 10958 10958 10957 10958 10959 10959 10960 10961 10963 10964 10964 10964 10965 10965 10965 10965 10966 10967 10968 10968 10969 10971 10972 10972 10972 10973 10974 10974 10974 10974 10975 10976 10977
10888 10887 10885 10885 10885 10886 10888 10887 10885 10884 10885 10885 10884 10884 10885 10885 10886 10887 10887 10889 10886 10883 10889 10889 10886 10885 10884 10887 10890 10890 10890 10892 10892 10894 10898 10899 10901 10908 10911 10913 10919 10922 10923 10925 10929 10934 10935 10933 10934 10935 10937 10942 10947 10950 10953 10955 10955 10954 10954 10955 10956 10957 10958 10960 10961 10962 10962 10963 10964 10964 10965 10965 10966 10967 10968 10969 10971 10972 10972 10973 10973 10974 10974 10974 10975 10975 10976 10976
10882 10881 10879 10878 10878 10878 10881 10882 10879 10879 10880 10879 10877 10878 10879 10879 10880 10881 10881 10885 10884 10879 10882 10885 10882 10880 10879 10882 10884 10884 10887 10886 10884 10888 10892 10891 10893 10901 10904 10907 10911 10913 10915 10918 10923 10929 10930 10929 10930 10931 10932 10936 10941 10945 10948 10951 10953 10952 10951 10951 10953 10954 10955 10957 10958 10959 10960 10961 10962 10963 10964 10964 10965 10967 10967 10968 10970 10970 10971 10972 10973 10974 10974 10974 10975 10975 10975 10976
10875 10875 10873 10871 10871 10870 10872 10875 10873 10872 10874 10872 10870 10872 10873 10872 10874 10875 10875 10880 10881 10877 10877 10876 10877 10876 10875 10877 10879 10879 10882 10881 10878 10882 10885 10886 10887 10892 10896 10898 10901 10904 10907 10911 10918 10924 10923 10922 10925 10926 10925 10928 10935 10941 10943 10945 10949 10949 10947 10946 10948 10950 10952 10954 10955 10956 10958 10958 10960 10961 10962 10964 10964 10965 10967 10967 10968 10969 10970 10971 10972 10973 10974 10974 10975 10975 10976 10976
10867 10868 10867 10864 10864 10864 10862 10865 10867 10866 10867 10865 10863 10865 10866 10866 10867 10868 10869 10874 10875 10874 10873 10870 10870 10872 10870 10872 10873 10873 10876 10876 10874 10877 10880 10880 10880 10883 10888 10890 10892 10895 10899 10906 10914 10916 10914 10915 10920 10920 10919 10923 10930 10934 10935 10938 10943 10945 10942 10942 10943 10946 10949 10950 10951 10953 10955 10956 10958 10959 10960 10962 10963 10964 10965 10966 10967 10969 10970 10970 10971 10972 10973 10973 10974 10974 10975 10975
10860 10860 10860 10857 10857 10858 10854 10855 10859 10860 10859 10858 10856 10858 10858 10859 10860 10861 10863 10868 10867 10865 10869 10867 10864 10864 10865 10867 10867 10866 10870 10870 10869 10874 10875 10873 10873 10877 10881 10882 10885 10888 10892 10899 10905 10906 10907 10909 10912 10914 10915 10919 10925 10926 10927 10932 10937 10938 10938 10938 10939 10941 10945 10947 10948 10950 10952 10954 10956 10957 10959 10961 10962 10962 10963 10964 10965 10967 10968 10968 10969 10970 10971 10972 10973 10973 10974 10974
10851 10852 10853 10850 10848 10849 10847 10846 10849 10851 10851 10850 10849 10849 10850 10851 10853 10854 10858 10862 10858 10855 10862 10865 10859 10857 10859 10862 10861 10860 10864 10864 10864 10870 10870 10866 10868 10872 10873 10874 10878 10881 10884 10890 10896 10898 10899 10901 10904 10910 10913 10914 10918 10919 10920 10926 10931 10932 10933 10934 10935 10937 10940 10943 10945 10946 10948 10952 10954 10955 10957 10958 10959 10961 10961 10962 10963 10964 10965 10966 10967 10968 10969 10970 10971 10972 10972 10972
10842 10842 10843 10842 10840 10839 10838 10839 10839 10839 10841 10843 10842 10840 10842 10843 10844 10849 10854 10854 10849 10848 10854 10857 10853 10852 10853 10854 10855 10855 10857 10857 10859 10864 10864 10861 10863 10866 10867 10868 10871 10874 10877 10882 10886 10887 10890 10894 10899 10905 10907 10907 10911 10912 10912 10919 10924 10925 10928 10931 10931 10933 10936 10939 10941 10943 10946 10950 10952 10951 10953 10955 10957 10958 10959 10959 10961 10962 10964 10964 10965 10967 10968 10968 10969 10970 10970 10970
10832 10832 10833 10833 10833 10829 10827 10830 10831 10828 10830 10833 10832 10833 10834 10834 10839 10846 10847 10843 10842 10842 10844 10847 10848 10848 10846 10846 10848 10850 10850 10850 10853 10858 10857 10855 10858 10861 10862 10862 10864 10867 10871 10874 10876 10877 10883 10889 10892 10897 10899 10901 10906 10905 10905 10911 10916 10918 10922 10925 10927 10929 10932 10936 10938 10940 10944 10947 10947 10947 10949 10953 10955 10954 10955 10957 10958 10960 10961 10962 10963 10965 10966 10967 10967 10968 10968 10969
10822 10822 10822 10822 10823 10820 10816 10819 10820 10818 10819 10821 10822 10824 10824 10827 10836 10840 10837 10833 10834 10834 10833 10837 10841 10841 10840 10839 10840 10843 10844 10844 10847 10851 10850 10850 10853 10855 10856 10857 10858 10861 10863 10865 10868 10871 10876 10880 10885 10892 10894 10896 10901 10899 10900 10905 10907 10910 10916 10918 10922 10926 10928 10932 10934 10935 10940 10942 10942 10942 10945 10950 10952 10951 10952 10954 10955 10957 10959 10960 10961 10962 10964 10965 10965 10965 10966 10967
10811 10812 10811 10810 10811 10811 10807 10806 10808 10807 10807 10809 10811 10813 10814 10823 10832 10830 10827 10826 10824 10823 10823 10827 10831 10833 10835 10834 10832 10835 10838 10839 10840 10843 10844 10844 10847 10850 10851 10851 10852 10854 10854 10857 10862 10865 10868 10873 10879 10884 10885 10887 10891 10892 10893 10895 10895 10899 10907 10909 10914 10920 10924 10927 10929 10930 10932 10934 10935 10938 10942 10947 10947 10946 10947 10949 10951 10953 10955 10957 10958 10960 10961 10963 10963 10963 10963 10964
10799 10800 10800 10798 10798 10800 10798 10795 10795 10794 10794 10797 10799 10801 10809 10819 10821 10817 10818 10818 10813 10812 10813 10816 10820 10823 10827 10829 10827 10826 10830 10833 10832 10834 10837 10839 10841 10844 10845 10845 10846 10848 10848 10851 10855 10858 10861 10867 10870 10871 10875 10879 10883 10885 10884 10882 10885 10891 10896 10901 10908 10917 10920 10919 10921 10924 10923 10925 10930 10935 10940 10942 10941 10941 10942 10946 10949 10950 10951 10953 10954 10956 10958 10960 10960 10960 10960 10961
10787 10787 10787 10785 10784 10786 10787 10784 10781 10781 10782 10783 10786 10794 10804 10810 10808 10805 10807 10807 10804 10803 10801 10804 10811 10814 10815 10821 10822 10819 10820 10824 10825 10826 10831 10834 10835 10837 10839 10840 10840 10841 10843 10844 10846 10849 10854 10858 10859 10861 10869 10874 10874 10876 10875 10875 10880 10883 10888 10898 10907 10911 10910 10909 10915 10918 10917 10921 10929 10933 10936 10936 10936 10937 10939 10942 10945 10945 10947 10950 10951 10953 10954 10956 10957 10957 10957 10959
10775 10775 10773 10771 10772 10773 10773 10772 10767 10767 10769 10768 10774 10787 10794 10795 10795 10795 10795 10794 10794 10794 10792 10793 10799 10805 10806 10808 10813 10813 10811 10812 10816 10820 10823 10826 10830 10832 10832 10833 10834 10835 10838 10838 10839 10842 10846 10849 10852 10856 10862 10864 10864 10865 10868 10870 10872 10877 10886 10894 10898 10899 10899 10904 10910 10911 10913 10921 10925 10927 10929 10930 10932 10935 10935 10937 10940 10940 10943 10946 10948 10949 10950 10952 10955 10955 10954 10956
10761 10762 10757 10755 10759 10759 10758 10758 10753 10752 10755 10755 10764 10777 10780 10780 10782 10782 10783 10782 10781 10782 10783 10785 10788 10792 10796 10799 10802 10805 10803 10803 10807 10812 10814 10818 10824 10826 10824 10825 10828 10830 10830 10831 10833 10836 10839 10841 10845 10850 10853 10854 10855 10857 10861 10865 10869 10875 10882 10885 10888 10891 10894 10900 10905 10907 10912 10919 10919 10919 10923 10925 10928 10932 10931 10932 10936 10936 10938 10941 10943 10945 10946 10948 10951 10952 10951 10953
10747 10747 10742 10737 10741 10742 10741 10743 10739 10737 10739 10745 10756 10763 10763 10765 10767 10768 10769 10769 10769 10769 10772 10778 10779 10777 10784 10791 10792 10793 10793 10794 10798 10803 10805 10809 10816 10819 10818 10818 10820 10824 10824 10823 10826 10829 10831 10834 10837 10841 10844 10844 10847 10853 10859 10863 10867 10870 10872 10876 10881 10885 10887 10891 10897 10903 10907 10911 10914 10914 10917 10921 10925 10926 10926 10928 10930 10932 10934 10936 10939 10942 10942 10944 10947 10948 10948 10950
10731 10733 10727 10719 10721 10725 10725 10724 10723 10725 10726 10731 10741 10746 10746 10749 10752 10753 10755 10755 10756 10756 10760 10767 10768 10766 10771 10780 10782 10782 10782 10783 10787 10793 10796 10801 10807 10810 10811 10812 10813 10815 10816 10817 10819 10820 10823 10828 10830 10831 10835 10839 10845 10853 10855 10855 10857 10859 10861 10867 10873 10876 10878 10880 10888 10897 10900 10904 10909 10910 10913 10918 10919 10919 10922 10923 10924 10927 10929 10931 10935 10937 10938 10940 10941 10943 10945 10945
10714 10717 10712 10701 10701 10706 10709 10706 10705 10709 10712 10715 10723 10728 10730 10733 10735 10738 10741 10742 10742 10745 10748 10752 10755 10758 10760 10765 10771 10771 10769 10772 10777 10782 10787 10792 10797 10800 10803 10806 10806 10805 10807 10811 10813 10813 10815 10821 10824 10823 10827 10837 10843 10845 10844 10841 10843 10848 10852 10857 10863 10866 10866 10867 10878 10889 10893 10898 10904 10905 10910 10915 10913 10914 10918 10918 10918 10921 10924 10926 10929 10931 10933 10935 10935 10937 10942 10941
10695 10699 10695 10684 10680 10684 10688 10690 10690 10691 10694 10701 10708 10709 10710 10714 10718 10722 10725 10727 10729 10732 10734 10735 10742 10748 10749 10751 10756 10759 10759 10760 10763 10770 10778 10783 10788 10791 10792 10796 10799 10797 10798 10804 10807 10806 10805 10810 10817 10819 10822 10830 10834 10835 10834 10832 10834 10840 10846 10850 10854 10857 10857 10859 10872 10883 10885 10891 10896 10899 10906 10910 10909 10910 10912 10911 10911 10913 10917 10921 10924 10926 10929 10930 10929 10932 10938 10937
10674 10679 10676 10664 10658 10662 10665 10671 10677 10674 10673 10682 10688 10688 10691 10695 10700 10706 10708 10710 10716 10719 10718 10722 10730 10735 10736 10738 10740 10744 10748 10750 10751 10758 10767 10772 10778 10782 10781 10784 10791 10791 10790 10795 10799 10798 10798 10802 10811 10815 10815 10819 10825 10828 10828 10827 10829 10833 10841 10847 10848 10851 10856 10859 10868 10874 10876 10883 10889 10892 10899 10903 10904 10906 10905 10903 10904 10907 10912 10916 10919 10922 10924 10925 10924 10925 10931 10933
10652 10657 10657 10643 10633 10636 10642 10652 10660 10656 10652 10658 10665 10669 10672 10675 10681 10688 10691 10694 10699 10702 10703 10709 10716 10718 10722 10724 10724 10729 10735 10739 10742 10748 10753 10759 10766 10773 10773 10772 10779 10785 10784 10786 10789 10791 10793 10795 10801 10807 10809 10811 10817 10824 10825 10825 10826 10828 10834 10840 10841 10844 10850 10853 10856 10860 10867 10877 10882 10884 10891 10896 10898 10899 10898 10897 10897 10901 10907 10909 10912 10918 10918 10919 10920 10920 10924 10928
10628 10631 10634 10623 10608 10608 10619 10631 10637 10634 10631 10634 10639 10646 10650 10654 10662 10669 10673 10677 10681 10685 10688 10693 10698 10700 10705 10709 10711 10715 10721 10727 10734 10737 10739 10744 10752 10763 10766 10762 10766 10775 10777 10777 10780 10784 10787 10788 10791 10800 10805 10806 10811 10817 10818 10817 10817 10818 10821 10827 10832 10835 10838 10841 10843 10848 10859 10870 10871 10876 10886 10889 10889 10891 10890 10890 10891 10895 10899 10900 10905 10912 10912 10912 10914 10915 10918 10921
10603 10606 10607 10598 10584 10583 10593 10605 10611 10611 10609 10608 10610 10619 10626 10633 10643 10649 10653 10659 10664 10668 10670 10674 10678 10681 10686 10696 10700 10703 10709 10715 10720 10724 10726 10730 10739 10750 10755 10751 10754 10764 10769 10770 10772 10775 10779 10781 10785 10793 10798 10801 10803 10805 10807 10808 10808 10809 10812 10817 10822 10825 10827 10829 10831 10839 10852 10859 10860 10869 10878 10877 10878 10883 10884 10885 10888 10892 10894 10894 10896 10904 10906 10905 10906 10908 10912 10914
10573 10577 10577 10568 10560 10561 10567 10575 10580 10581 10581 10580 10582 10592 10604 10614 10624 10630 10634 10640 10646 10649 10649 10652 10657 10662 10670 10682 10687 10689 10694 10700 10704 10709 10714 10720 10726 10736 10742 10740 10742 10753 10762 10763 10763 10766 10770 10775 10780 10785 10789 10793 10794 10794 10797 10800 10802 10803 10806 10810 10813 10816 10818 10821 10825 10835 10844 10845 10851 10863 10869 10867 10872 10877 10878 10881 10884 10886 10891 10890 10887 10891 10897 10899 10899 10902 10907 10908
10539 10543 10543 10536 10532 10537 10540 10542 10545 10547 10550 10554 10557 10567 10581 10593 10600 10605 10610 10616 10622 10623 10621 10625 10636 10646 10655 10662 10667 10672 10677 10682 10688 10695 10701 10708 10714 10720 10728 10730 10731 10743 10753 10753 10753 10757 10762 10768 10774 10778 10781 10784 10785 10785 10788 10792 10795 10797 10800 10803 10805 10806 10810 10816 10823 10831 10833 10834 10845 10857 10859 10860 10865 10867 10869 10875 10878 10878 10882 10885 10882 10881 10886 10891 10894 10899 10902 10901
10504 10506 10507 10502 10501 10508 10512 10510 10512 10515 10519 10525 10530 10539 10554 10566 10572 10578 10584 10587 10590 10593 10594 10604 10619 10630 10636 10641 10645 10653 10660 10666 10675 10682 10687 10694 10701 10706 10715 10721 10722 10731 10741 10744 10745 10749 10754 10761 10766 10770 10773 10775 10776 10778 10781 10783 10787 10792 10795 10797 10797 10799 10805 10811 10819 10824 10823 10827 10840 10848 10848 10852 10856 10856 10860 10868 10870 10869 10871 10875 10876 10875 10876 10882 10889 10894 10896 10895
10470 10470 10471 10469 10470 10478 10481 10479 10481 10485 10488 10492 10499 10509 10524 10537 10543 10550 10554 10555 10561 10569 10574 10587 10603 10610 10617 10623 10627 10636 10647 10651 10657 10665 10668 10675 10686 10694 10704 10713 10713 10716 10729 10737 10736 10739 10747 10754 10757 10760 10763 10767 10770 10772 10772 10774 10779 10785 10788 10789 10791 10796 10802 10806 10811 10816 10815 10819 10829 10835 10837 10843 10849 10850 10852 10856 10859 10861 10861 10864 10869 10871 10870 10873 10881 10888 10889 10891
10441 10440 10441 10443 10445 10448 10451 10451 10453 10457 10460 10464 10471 10480 10492 10504 10512 10518 10522 10527 10537 10545 10550 10564 10580 10589 10599 10607 10610 10617 10625 10625 10630 10644 10651 10659 10676 10688 10696 10704 10703 10705 10719 10728 10726 10730 10739 10744 10747 10750 10755 10761 10765 10765 10764 10766 10768 10774 10782 10787 10790 10794 10797 10797 10799 10804 10806 10809 10815 10819 10825 10836 10842 10840 10840 10844 10848 10851 10854 10857 10861 10865 10864 10865 10873 10880 10882 10886
10418 10417 10417 10421 10424 10424 10426 10428 10429 10432 10437 10441 10446 10453 10463 10472 10480 10486 10491 10501 10510 10514 10523 10542 10556 10565 10576 10583 10586 10593 10603 10610 10623 10639 10648 10657 10673 10683 10686 10691 10693 10697 10708 10715 10716 10721 10728 10734 10737 10741 10747 10754 10756 10758 10758 10754 10755 10769 10784 10787 10783 10783 10785 10785 10786 10789 10794 10798 10802 10808 10818 10826 10826 10823 10826 10835 10840 10842 10846 10851 10854 10857 10860 10861 10866 10871 10873 10878